TimeCDT,TemperatureF,Dew PointF,Humidity,Sea Level PressureIn,VisibilityMPH,Wind Direction,Wind SpeedMPH,Gust SpeedMPH,PrecipitationIn,Events,Conditions,WindDirDegrees,DateUTC
12:53 AM,73.9,70.0,87,29.80,10.0,South,10.4,-,N/A,,Clear,180,2013-07-22 05:53:00
1:53 AM,75.0,69.1,82,29.80,10.0,South,6.9,-,N/A,,Clear,190,2013-07-22 06:53:00
2:53 AM,73.0,69.1,87,29.80,10.0,SSW,6.9,-,N/A,,Clear,200,2013-07-22 07:53:00
3:53 AM,73.0,69.1,87,29.78,10.0,SW,8.1,-,N/A,,Clear,230,2013-07-22 08:53:00
4:53 AM,73.0,69.1,87,29.77,10.0,SW,6.9,-,N/A,,Clear,220,2013-07-22 09:53:00
5:53 AM,72.0,68.0,87,29.78,10.0,SW,8.1,-,N/A,,Clear,230,2013-07-22 10:53:00
6:53 AM,72.0,68.0,87,29.75,9.0,South,5.8,-,N/A,,Clear,170,2013-07-22 11:53:00
7:53 AM,73.0,68.0,84,29.76,10.0,SSE,4.6,-,N/A,,Clear,150,2013-07-22 12:53:00
8:53 AM,79.0,68.0,69,29.76,10.0,South,9.2,-,N/A,,Clear,180,2013-07-22 13:53:00
9:53 AM,84.9,64.0,49,29.78,10.0,WSW,5.8,-,N/A,,Clear,240,2013-07-22 14:53:00
10:53 AM,86.0,66.0,51,29.77,10.0,WNW,10.4,-,N/A,,Clear,300,2013-07-22 15:53:00
11:53 AM,91.0,62.1,38,29.77,10.0,NNW,11.5,-,N/A,,Clear,330,2013-07-22 16:53:00
12:53 PM,93.9,63.0,36,29.77,10.0,North,13.8,-,N/A,,Clear,10,2013-07-22 17:53:00
1:53 PM,97.0,57.9,27,29.77,10.0,NNW,9.2,-,N/A,,Clear,330,2013-07-22 18:53:00
2:53 PM,97.0,59.0,28,29.76,10.0,NNW,6.9,-,N/A,,Clear,330,2013-07-22 19:53:00
3:53 PM,97.0,60.1,29,29.75,10.0,Calm,Calm,-,N/A,,Clear,0,2013-07-22 20:53:00
4:53 PM,97.0,60.1,29,29.75,10.0,Variable,3.5,-,N/A,,Clear,0,2013-07-22 21:53:00
5:53 PM,93.9,64.9,38,29.76,10.0,SE,6.9,-,N/A,,Partly Cloudy,130,2013-07-22 22:53:00
6:53 PM,91.0,71.1,52,29.77,10.0,SSE,4.6,-,N/A,,Partly Cloudy,150,2013-07-22 23:53:00
7:53 PM,87.1,69.1,55,29.79,10.0,NNE,13.8,21.9,N/A,,Clear,30,2013-07-23 00:53:00
8:53 PM,82.0,66.9,60,29.79,10.0,NE,11.5,-,N/A,,Clear,40,2013-07-23 01:53:00
9:53 PM,77.0,63.0,62,29.81,10.0,NNE,6.9,-,N/A,,Clear,30,2013-07-23 02:53:00
10:53 PM,73.0,63.0,71,29.83,10.0,NE,4.6,-,N/A,,Clear,40,2013-07-23 03:53:00
11:53 PM,71.1,62.1,73,29.84,10.0,ENE,4.6,-,N/A,,Clear,70,2013-07-23 04:53:00